Home   Weather   Waidhofen an der Ybbs   Past weeks

Flag for Austria Past Weather in Waidhofen an der Ybbs, Lower Austria, Austria — Yesterday and Last 2 Weeks

Now
51 °F

Cool.


Feels Like: 51 °F
Forecast: 47 / 73 °F
Wind: 1 mph from West

Location: Amstetten

Current Time: Sep 30, 2016 at 2:04:59 AM

Latest Report: Sep 30, 2016 at 1:00 AM


Visibility: N/A

Pressure: 30.11 "Hg

Humidity: 100%

Dew Point: 51 °F

Location of Waidhofen an der YbbsLocation

Past Weather in Waidhofen an der Ybbs — Graph

°F

Waidhofen an der Ybbs Temperature Yesterday

Maximum temperature yesterday: 75 °F (at 4:00 PM)
Minimum temperature yesterday: 53 °F (at 7:00 AM)
Average temperature yesterday: 62 °F

High & Low Weather Summary for the Past Weeks

 TemperatureHumidityPressure
High83 °F (Sep 15, 5:00 PM)100% (Sep 16, 11:00 PM)30.43 "Hg (Sep 16, 11:00 PM)
Low42 °F (Sep 23, 7:00 AM)44% (Sep 23, 5:00 PM)29.78 "Hg (Sep 17, 3:00 AM)
Average58 °F86%30.10 "Hg
* Reported Sep 15 1:00 AM — Sep 30 1:00 AM, Waidhofen an der Ybbs, Weather by CustomWeather, © 2016

Note: Actual official high and low records may vary slightly from our data, if they occured in-between our weather recording intervals... More about our weather records

Advertising

Waidhofen an der Ybbs Weather History for the Previous 24 Hours

Scroll right to see more
 ConditionsComfort  
Time TempWeatherWind HumidityBarometerVisibility
1:00 AM
Fri, Sep 30
51 °FCool.1 mph100%30.11 "HgN/A
12:00 AM53 °FCool.1 mph99%30.10 "HgN/A
11:00 PM
Thu, Sep 29
53 °FCool.No wind98%30.10 "HgN/A
10:00 PM56 °FCool.1 mph95%30.09 "HgN/A
9:00 PM58 °FCool.1 mph94%30.09 "HgN/A
7:00 PM65 °FMild.1 mph78%30.08 "HgN/A
6:00 PM73 °FMild.1 mph62%30.07 "HgN/A
5:00 PM75 °FMild.1 mph52%30.08 "HgN/A
4:00 PM75 °FMild.1 mph51%30.10 "HgN/A
3:00 PM74 °FMild.2 mph50%30.13 "HgN/A
2:00 PM73 °FMild.1 mph54%30.16 "HgN/A
1:00 PM71 °FMild.2 mph58%30.20 "HgN/A
12:00 PM69 °FMild.2 mph65%30.23 "HgN/A
10:00 AM62 °FCool.2 mph77%30.29 "HgN/A
9:00 AM57 °FCool.1 mph90%30.30 "HgN/A
8:00 AM53 °FPassing clouds.2 mph95%30.32 "HgN/A
7:00 AM53 °FCool.1 mph98%30.32 "HgN/A
6:00 AM54 °FCool.No wind95%30.33 "HgN/A
5:00 AM55 °FCool.1 mph89%30.32 "HgN/A
4:00 AM55 °FCool.1 mph92%30.32 "HgN/A
3:00 AM56 °FCool.2 mph91%30.34 "HgN/A
2:00 AM56 °FCool.2 mph91%30.34 "HgN/A
Weather by CustomWeather, © 2016

See weather overviewHow to use our weather pages